,,PA_Meas_PMT16A,,PR_Meas_QMR101_102,,RH_Meas_QMH101,,SR_Meas_QMS101,,TA_Meas_QMH101,,GenWind,,GenWind,
time,status,PA,status,PR,status,RH,status,SR,status,TA,status,DirAvg,status,SpdAvg,
2013-12-10, 00:00:04,VALID,916.116,VALID,0,VALID,97.2824,VALID,0,VALID,20.2504,VALID,10,VALID,0,
2013-12-10, 00:01:04,VALID,916.119,VALID,0,VALID,97.3053,VALID,0,VALID,20.2309,VALID,10,VALID,0,
2013-12-10, 00:02:04,VALID,916.127,VALID,0,VALID,97.2977,VALID,0,VALID,20.1903,VALID,10,VALID,0,
2013-12-10, 00:03:04,VALID,916.128,VALID,0,VALID,97.2977,VALID,0,VALID,20.1724,VALID,10,VALID,0,
2013-12-10, 00:04:04,VALID,916.143,VALID,0,VALID,97.3205,VALID,0,VALID,20.1529,VALID,10,VALID,0,
2013-12-10, 00:05:04,VALID,916.106,VALID,0,VALID,97.3053,VALID,0,VALID,20.1139,VALID,10,VALID,0,
2013-12-10, 00:06:04,VALID,916.1,VALID,0,VALID,97.3129,VALID,0,VALID,20.1139,VALID,10,VALID,0,
2013-12-10, 00:07:04,VALID,916.081,VALID,0,VALID,97.3129,VALID,0,VALID,20.1139,VALID,10,VALID,0,
2013-12-10, 00:08:04,VALID,916.058,VALID,0,VALID,97.3281,VALID,0,VALID,20.0944,VALID,10,VALID,0,
2013-12-10, 00:09:04,VALID,916.061,VALID,0,VALID,97.3205,VALID,0,VALID,20.0733,VALID,10,VALID,0,
2013-12-10, 00:10:04,VALID,916.04,VALID,0,VALID,97.3281,VALID,0,VALID,20.0944,VALID,10,VALID,0,
2013-12-10, 00:11:04,VALID,916.052,VALID,0,VALID,97.3205,VALID,0,VALID,20.0944,VALID,10,VALID,0,
2013-12-10, 00:12:04,VALID,915.994,VALID,0,VALID,97.3053,VALID,0,VALID,20.1139,VALID,10,VALID,0,
2013-12-10, 00:13:04,VALID,915.987,VALID,0,VALID,97.3129,VALID,0,VALID,20.1529,VALID,10,VALID,0,
2013-12-10, 00:14:04,VALID,915.935,VALID,0,VALID,97.2977,VALID,0,VALID,20.1708,VALID,10,VALID,0,
2013-12-10, 00:15:04,VALID,915.965,VALID,0,VALID,97.2977,VALID,0,VALID,20.234,VALID,10,VALID,0,
2013-12-10, 00:16:04,VALID,915.94,VALID,0,VALID,97.29,VALID,0,VALID,20.2309,VALID,10,VALID,0,
2013-12-10, 00:17:04,VALID,915.963,VALID,0,VALID,97.2977,VALID,0,VALID,20.2309,VALID,10,VALID,0,
2013-12-10, 00:18:04,VALID,915.94,VALID,0,VALID,97.2748,VALID,0,VALID,20.2293,VALID,10,VALID,0,
2013-12-10, 00:19:04,VALID,915.943,VALID,0,VALID,97.29,VALID,0,VALID,20.2504,VALID,10,VALID,0,
2013-12-10, 00:20:04,VALID,915.913,VALID,0,VALID,97.29,VALID,0,VALID,20.2489,VALID,10,VALID,0,
2013-12-10, 00:21:04,VALID,915.93,VALID,0,VALID,97.2824,VALID,0,VALID,20.2489,VALID,10,VALID,0,
2013-12-10, 00:22:04,VALID,915.918,VALID,0,VALID,97.2977,VALID,0,VALID,20.2699,VALID,10,VALID,0,
2013-12-10, 00:23:04,VALID,915.935,VALID,0,VALID,97.29,VALID,0,VALID,20.2684,VALID,10,VALID,0,
2013-12-10, 00:24:04,VALID,915.904,VALID,0,VALID,97.3129,VALID,0,VALID,20.2504,VALID,10,VALID,0,
2013-12-10, 00:25:04,VALID,915.878,VALID,0,VALID,97.3129,VALID,0,VALID,20.2114,VALID,10,VALID,0,
2013-12-10, 00:26:04,VALID,915.881,VALID,0,VALID,97.3129,VALID,0,VALID,20.1934,VALID,10,VALID,0,
2013-12-10, 00:27:04,VALID,915.867,VALID,0,VALID,97.3281,VALID,0,VALID,20.1334,VALID,10,VALID,0,
2013-12-10, 00:28:04,VALID,915.845,VALID,0,VALID,97.3205,VALID,0,VALID,20.0733,VALID,10,VALID,0,
2013-12-10, 00:29:04,VALID,915.839,VALID,0,VALID,97.3281,VALID,0,VALID,20.1154,VALID,10,VALID,0,
2013-12-10, 00:30:04,VALID,915.848,VALID,0,VALID,97.3281,VALID,0,VALID,20.0553,VALID,10,VALID,0,
2013-12-10, 00:31:04,VALID,915.818,VALID,0,VALID,97.3205,VALID,0,VALID,20.0538,VALID,10,VALID,0,
2013-12-10, 00:32:04,VALID,915.829,VALID,0,VALID,97.3281,VALID,0,VALID,20.0538,VALID,10,VALID,0,
2013-12-10, 00:33:04,VALID,915.817,VALID,0,VALID,97.3358,VALID,0,VALID,20.0553,VALID,10,VALID,0,
2013-12-10, 00:34:04,VALID,915.784,VALID,0,VALID,97.3434,VALID,0,VALID,20.0553,VALID,10,VALID,0,
2013-12-10, 00:35:04,VALID,915.784,VALID,0,VALID,97.3129,VALID,0,VALID,20.0733,VALID,10,VALID,0,
2013-12-10, 00:36:04,VALID,915.76,VALID,0,VALID,97.3205,VALID,0,VALID,20.1123,VALID,10,VALID,0,
2013-12-10, 00:37:04,VALID,915.737,VALID,0,VALID,97.3053,VALID,0,VALID,20.1529,VALID,10,VALID,0,
2013-12-10, 00:38:04,VALID,915.735,VALID,0,VALID,97.3053,VALID,0,VALID,20.1513,VALID,10,VALID,0,
2013-12-10, 00:39:04,VALID,915.698,VALID,0,VALID,97.3281,VALID,0,VALID,20.1724,VALID,10,VALID,0,
2013-12-10, 00:40:04,VALID,915.705,VALID,0,VALID,97.3205,VALID,0,VALID,20.1529,VALID,10,VALID,0,
2013-12-10, 00:41:04,VALID,915.703,VALID,0,VALID,97.3281,VALID,0,VALID,20.1529,VALID,10,VALID,0,
2013-12-10, 00:42:04,VALID,915.675,VALID,0,VALID,97.3281,VALID,0,VALID,20.1139,VALID,10,VALID,0,
2013-12-10, 00:43:04,VALID,915.691,VALID,0,VALID,97.3129,VALID,0,VALID,20.1139,VALID,10,VALID,0,
2013-12-10, 00:44:04,VALID,915.688,VALID,0,VALID,97.3281,VALID,0,VALID,20.1139,VALID,10,VALID,0,
2013-12-10, 00:45:04,VALID,915.664,VALID,0,VALID,97.2977,VALID,0,VALID,20.1318,VALID,10,VALID,0,
2013-12-10, 00:46:04,VALID,915.688,VALID,0,VALID,97.3205,VALID,0,VALID,20.1724,VALID,10,VALID,0,
2013-12-10, 00:47:04,VALID,915.685,VALID,0,VALID,97.3205,VALID,0,VALID,20.1919,VALID,10,VALID,0,
2013-12-10, 00:48:04,VALID,915.66,VALID,0,VALID,97.3053,VALID,0,VALID,20.1919,VALID,10,VALID,0,
2013-12-10, 00:49:04,VALID,915.661,VALID,0,VALID,97.3129,VALID,0,VALID,20.1919,VALID,10,VALID,0,
2013-12-10, 00:50:04,VALID,915.648,VALID,0,VALID,97.3434,VALID,0,VALID,20.1708,VALID,10,VALID,0,
2013-12-10, 00:51:04,VALID,915.641,VALID,0,VALID,97.3281,VALID,0,VALID,20.1919,VALID,10,VALID,0,
2013-12-10, 00:52:04,VALID,915.654,VALID,0,VALID,97.3129,VALID,0,VALID,20.1513,VALID,10,VALID,0,
2013-12-10, 00:53:04,VALID,915.631,VALID,0,VALID,97.3205,VALID,0,VALID,20.1724,VALID,10,VALID,0,
2013-12-10, 00:54:04,VALID,915.61,VALID,0,VALID,97.2824,VALID,0,VALID,20.1903,VALID,10,VALID,0,
2013-12-10, 00:55:04,VALID,915.606,VALID,0,VALID,97.3053,VALID,0,VALID,20.1903,VALID,10,VALID,0,
2013-12-10, 00:56:04,VALID,915.589,VALID,0,VALID,97.3129,VALID,0,VALID,20.1919,VALID,10,VALID,0,
2013-12-10, 00:57:04,VALID,915.605,VALID,0,VALID,97.3129,VALID,0,VALID,20.2114,VALID,10,VALID,0,
2013-12-10, 00:58:04,VALID,915.601,VALID,0,VALID,97.3129,VALID,0,VALID,20.1919,VALID,10,VALID,0,
2013-12-10, 00:59:04,VALID,915.587,VALID,0,VALID,97.2977,VALID,0,VALID,20.1919,VALID,10,VALID,0,
2013-12-10, 01:00:04,VALID,915.595,VALID,0,VALID,97.3053,VALID,0,VALID,20.1903,VALID,10,VALID,0,
2013-12-10, 01:01:04,VALID,915.596,VALID,0,VALID,97.3281,VALID,0,VALID,20.1708,VALID,10,VALID,0,
2013-12-10, 01:02:04,VALID,915.608,VALID,0,VALID,97.3205,VALID,0,VALID,20.1724,VALID,10,VALID,0,
2013-12-10, 01:03:04,VALID,915.588,VALID,0,VALID,97.3129,VALID,0,VALID,20.1529,VALID,10,VALID,0,
2013-12-10, 01:04:04,VALID,915.575,VALID,0,VALID,97.3281,VALID,0,VALID,20.1529,VALID,10,VALID,0,
2013-12-10, 01:05:04,VALID,915.574,VALID,0,VALID,97.3281,VALID,0,VALID,20.1724,VALID,10,VALID,0,
2013-12-10, 01:06:04,VALID,915.553,VALID,0,VALID,97.3281,VALID,0,VALID,20.1529,VALID,10,VALID,0,
2013-12-10, 01:07:04,VALID,915.548,VALID,0,VALID,97.3129,VALID,0,VALID,20.1724,VALID,10,VALID,0,
2013-12-10, 01:08:04,VALID,915.556,VALID,0,VALID,97.3205,VALID,0,VALID,20.1724,VALID,10,VALID,0,
2013-12-10, 01:09:04,VALID,915.545,VALID,0,VALID,97.3205,VALID,0,VALID,20.1708,VALID,10,VALID,0,
2013-12-10, 01:10:04,VALID,915.549,VALID,0,VALID,97.3205,VALID,0,VALID,20.2309,VALID,10,VALID,0,
2013-12-10, 01:11:04,VALID,915.518,VALID,0,VALID,97.3205,VALID,0,VALID,20.2504,VALID,10,VALID,0,
2013-12-10, 01:12:04,VALID,915.507,VALID,0,VALID,97.3129,VALID,0,VALID,20.2504,VALID,10,VALID,0,
2013-12-10, 01:13:04,VALID,915.488,VALID,0,VALID,97.3053,VALID,0,VALID,20.2504,VALID,10,VALID,0,
2013-12-10, 01:14:04,VALID,915.496,VALID,0,VALID,97.3129,VALID,0,VALID,20.2309,VALID,10,VALID,0,
2013-12-10, 01:15:04,VALID,915.447,VALID,0,VALID,97.3129,VALID,0,VALID,20.2504,VALID,10,VALID,0,
2013-12-10, 01:16:04,VALID,915.464,VALID,0,VALID,97.3053,VALID,0,VALID,20.2504,VALID,10,VALID,0,
2013-12-10, 01:17:04,VALID,915.469,VALID,0,VALID,97.3053,VALID,0,VALID,20.2699,VALID,10,VALID,0,
2013-12-10, 01:18:04,VALID,915.448,VALID,0,VALID,97.29,VALID,0,VALID,20.2699,VALID,10,VALID,0,
2013-12-10, 01:19:04,VALID,915.439,VALID,0,VALID,97.3205,VALID,0,VALID,20.2293,VALID,10,VALID,0,
2013-12-10, 01:20:04,VALID,915.429,VALID,0,VALID,97.3205,VALID,0,VALID,20.2309,VALID,10,VALID,0,
2013-12-10, 01:21:04,VALID,915.382,VALID,0,VALID,97.2977,VALID,0,VALID,20.2309,VALID,10,VALID,0,
2013-12-10, 01:22:04,VALID,915.389,VALID,0,VALID,97.3129,VALID,0,VALID,20.2309,VALID,10,VALID,0,
2013-12-10, 01:23:04,VALID,915.409,VALID,0,VALID,97.3205,VALID,0,VALID,20.1919,VALID,10,VALID,0,
2013-12-10, 01:24:04,VALID,915.381,VALID,0,VALID,97.3358,VALID,0,VALID,20.1513,VALID,10,VALID,0,
2013-12-10, 01:25:04,VALID,915.402,VALID,0,VALID,97.3281,VALID,0,VALID,20.1529,VALID,10,VALID,0,
2013-12-10, 01:26:04,VALID,915.385,VALID,0,VALID,97.3434,VALID,0,VALID,20.1724,VALID,10,VALID,0,
2013-12-10, 01:27:04,VALID,915.365,VALID,0,VALID,97.3205,VALID,0,VALID,20.1318,VALID,10,VALID,0,
2013-12-10, 01:28:04,VALID,915.364,VALID,0,VALID,97.3205,VALID,0,VALID,20.1513,VALID,10,VALID,0,
2013-12-10, 01:29:04,VALID,915.386,VALID,0,VALID,97.3205,VALID,0,VALID,20.1724,VALID,10,VALID,0,
2013-12-10, 01:30:04,VALID,915.341,VALID,0,VALID,97.3358,VALID,0,VALID,20.1708,VALID,10,VALID,0,
2013-12-10, 01:31:04,VALID,915.333,VALID,0,VALID,97.3205,VALID,0,VALID,20.2535,VALID,10,VALID,0,
2013-12-10, 01:32:04,VALID,915.309,VALID,0,VALID,97.3129,VALID,0,VALID,20.1903,VALID,10,VALID,0,
2013-12-10, 01:33:04,VALID,915.31,VALID,0,VALID,97.3205,VALID,0,VALID,20.1919,VALID,10,VALID,0,
2013-12-10, 01:34:04,VALID,915.305,VALID,0,VALID,97.3205,VALID,0,VALID,20.2114,VALID,10,VALID,0,
2013-12-10, 01:35:04,VALID,915.282,VALID,0,VALID,97.3129,VALID,0,VALID,20.2114,VALID,10,VALID,0,
2013-12-10, 01:36:04,VALID,915.26,VALID,0,VALID,97.2977,VALID,0,VALID,20.2714,VALID,10,VALID,0,
2013-12-10, 01:37:04,VALID,915.229,VALID,0,VALID,97.3205,VALID,0,VALID,20.2098,VALID,10,VALID,0,
2013-12-10, 01:38:04,VALID,915.234,VALID,0,VALID,97.3281,VALID,0,VALID,20.2504,VALID,10,VALID,0,
2013-12-10, 01:39:04,VALID,915.208,VALID,0,VALID,97.2977,VALID,0,VALID,20.2293,VALID,10,VALID,0,
2013-12-10, 01:40:04,VALID,915.169,VALID,0,VALID,97.3129,VALID,0,VALID,20.2504,VALID,10,VALID,0,
2013-12-10, 01:41:04,VALID,915.186,VALID,0,VALID,97.3358,VALID,0,VALID,20.2309,VALID,10,VALID,0,
2013-12-10, 01:42:04,VALID,915.16,VALID,0,VALID,97.3281,VALID,0,VALID,20.2098,VALID,10,VALID,0,
2013-12-10, 01:43:04,VALID,915.152,VALID,0,VALID,97.3358,VALID,0,VALID,20.1903,VALID,10,VALID,0,
2013-12-10, 01:44:04,VALID,915.148,VALID,0,VALID,97.3205,VALID,0,VALID,20.2309,VALID,10,VALID,0,
2013-12-10, 01:45:04,VALID,915.134,VALID,0,VALID,97.3129,VALID,0,VALID,20.2114,VALID,10,VALID,0,
2013-12-10, 01:46:04,VALID,915.112,VALID,0,VALID,97.3434,VALID,0,VALID,20.1708,VALID,10,VALID,0,
2013-12-10, 01:47:04,VALID,915.094,VALID,0,VALID,97.3281,VALID,0,VALID,20.2309,VALID,10,VALID,0,
2013-12-10, 01:48:04,VALID,915.08,VALID,0,VALID,97.3205,VALID,0,VALID,20.2309,VALID,10,VALID,0,
2013-12-10, 01:49:04,VALID,915.058,VALID,0,VALID,97.3205,VALID,0,VALID,20.2309,VALID,10,VALID,0,
2013-12-10, 01:50:04,VALID,915.046,VALID,0,VALID,97.3358,VALID,0,VALID,20.2309,VALID,10,VALID,0,
2013-12-10, 01:51:04,VALID,915.031,VALID,0,VALID,97.3281,VALID,0,VALID,20.2504,VALID,10,VALID,0,
2013-12-10, 01:52:04,VALID,915.032,VALID,0,VALID,97.3281,VALID,0,VALID,20.2699,VALID,10,VALID,0,
2013-12-10, 01:53:04,VALID,915.029,VALID,0,VALID,97.3281,VALID,0,VALID,20.2504,VALID,10,VALID,0,
2013-12-10, 01:54:04,VALID,914.963,VALID,0,VALID,97.3358,VALID,0,VALID,20.2098,INVALID,360,VALID,0,
2013-12-10, 01:55:04,VALID,914.982,VALID,0,VALID,97.3358,VALID,0,VALID,20.2309,VALID,10,VALID,0,
2013-12-10, 01:56:04,VALID,914.954,VALID,0,VALID,97.3129,VALID,0,VALID,20.2504,VALID,10,VALID,0,
2013-12-10, 01:57:04,VALID,914.921,VALID,0,VALID,97.3053,VALID,0,VALID,20.2504,VALID,10,VALID,0,
2013-12-10, 01:58:04,VALID,914.937,VALID,0,VALID,97.3281,VALID,0,VALID,20.2309,VALID,10,VALID,0,
2013-12-10, 01:59:04,VALID,914.906,VALID,0,VALID,97.3358,VALID,0,VALID,20.2504,VALID,10,VALID,0,
2013-12-10, 02:00:04,VALID,914.896,VALID,0,VALID,97.3358,VALID,0,VALID,20.2309,VALID,10,VALID,0,
2013-12-10, 02:01:04,VALID,914.867,VALID,0,VALID,97.3205,VALID,0,VALID,20.2114,VALID,10,VALID,0,
2013-12-10, 02:02:04,VALID,914.834,VALID,0,VALID,97.3281,VALID,0,VALID,20.1919,VALID,10,VALID,0,
2013-12-10, 02:03:04,VALID,914.818,VALID,0,VALID,97.3281,VALID,0,VALID,20.1919,VALID,10,VALID,0,
2013-12-10, 02:04:04,VALID,914.81,VALID,0,VALID,97.3358,VALID,0,VALID,20.2114,VALID,10,VALID,0,
2013-12-10, 02:05:04,VALID,914.802,VALID,0,VALID,97.3358,VALID,0,VALID,20.1919,VALID,10,VALID,0,
2013-12-10, 02:06:04,VALID,914.789,VALID,0,VALID,97.3205,VALID,0,VALID,20.2114,VALID,10,VALID,0,
2013-12-10, 02:07:04,VALID,914.779,VALID,0,VALID,97.3205,VALID,0,VALID,20.2309,VALID,10,VALID,0,
2013-12-10, 02:08:04,VALID,914.781,VALID,0,VALID,97.3129,VALID,0,VALID,20.2114,VALID,10,VALID,0,
2013-12-10, 02:09:04,VALID,914.766,VALID,0,VALID,97.3358,VALID,0,VALID,20.2309,VALID,10,VALID,0,
2013-12-10, 02:10:04,VALID,914.778,VALID,0,VALID,97.3129,VALID,0,VALID,20.2309,VALID,10,VALID,0,
2013-12-10, 02:11:04,VALID,914.746,VALID,0,VALID,97.3205,VALID,0,VALID,20.2114,VALID,10,VALID,0,
2013-12-10, 02:12:04,VALID,914.736,VALID,0,VALID,97.3281,VALID,0,VALID,20.2129,VALID,10,VALID,0,
2013-12-10, 02:13:04,VALID,914.733,VALID,0,VALID,97.3358,VALID,0,VALID,20.1919,VALID,10,VALID,0,
2013-12-10, 02:14:04,VALID,914.727,VALID,0,VALID,97.3281,VALID,0,VALID,20.1724,VALID,10,VALID,0,
2013-12-10, 02:15:04,VALID,914.708,VALID,0,VALID,97.3129,VALID,0,VALID,20.1724,VALID,10,VALID,0,
2013-12-10, 02:16:04,VALID,914.701,VALID,0,VALID,97.3434,VALID,0,VALID,20.1708,VALID,10,VALID,0,
2013-12-10, 02:17:04,VALID,914.716,VALID,0,VALID,97.3205,VALID,0,VALID,20.2114,VALID,10,VALID,0,
2013-12-10, 02:18:04,VALID,914.711,VALID,0,VALID,97.3205,VALID,0,VALID,20.2098,VALID,10,VALID,0,
2013-12-10, 02:19:04,VALID,914.681,VALID,0,VALID,97.3205,VALID,0,VALID,20.2309,VALID,10,VALID,0,
2013-12-10, 02:20:04,VALID,914.695,VALID,0,VALID,97.3129,VALID,0,VALID,20.2309,VALID,10,VALID,0,
2013-12-10, 02:21:04,VALID,914.676,VALID,0,VALID,97.3053,VALID,0,VALID,20.2309,VALID,10,VALID,0,
2013-12-10, 02:22:04,VALID,914.638,VALID,0,VALID,97.3205,VALID,0,VALID,20.2309,VALID,10,VALID,0,
2013-12-10, 02:23:04,VALID,914.602,VALID,0,VALID,97.3129,VALID,0,VALID,20.2504,VALID,10,VALID,0,
2013-12-10, 02:24:04,VALID,914.598,VALID,0,VALID,97.3281,VALID,0,VALID,20.2504,VALID,10,VALID,0,
2013-12-10, 02:25:04,VALID,914.581,VALID,0,VALID,97.3129,VALID,0,VALID,20.2504,VALID,10,VALID,0,
2013-12-10, 02:26:04,VALID,914.552,VALID,0,VALID,97.3205,VALID,0,VALID,20.2894,VALID,10,VALID,0,
2013-12-10, 02:27:04,VALID,914.533,VALID,0,VALID,97.3129,VALID,0,VALID,20.2894,VALID,10,VALID,0,
2013-12-10, 02:28:04,VALID,914.548,VALID,0,VALID,97.3281,VALID,0,VALID,20.3089,VALID,10,VALID,0,
2013-12-10, 02:29:04,VALID,914.529,VALID,0,VALID,97.3129,VALID,0,VALID,20.2894,VALID,10,VALID,0,
2013-12-10, 02:30:04,VALID,914.5,VALID,0,VALID,97.3053,VALID,0,VALID,20.2504,VALID,10,VALID,0,
2013-12-10, 02:31:04,VALID,914.483,VALID,0,VALID,97.3358,VALID,0,VALID,20.2293,VALID,10,VALID,0,
2013-12-10, 02:32:04,VALID,914.48,VALID,0,VALID,97.3281,VALID,0,VALID,20.2309,VALID,10,VALID,0,
2013-12-10, 02:33:04,VALID,914.457,VALID,0,VALID,97.3358,VALID,0,VALID,20.2293,VALID,10,VALID,0,
2013-12-10, 02:34:04,VALID,914.439,VALID,0,VALID,97.3205,VALID,0,VALID,20.2293,VALID,10,VALID,0,
2013-12-10, 02:35:04,VALID,914.445,VALID,0,VALID,97.3205,VALID,0.107441,VALID,20.2699,VALID,10,VALID,0,
2013-12-10, 02:36:04,VALID,914.412,VALID,0,VALID,97.3129,VALID,0,VALID,20.2309,VALID,10,VALID,0,
2013-12-10, 02:37:04,VALID,914.417,VALID,0,VALID,97.3281,VALID,0,VALID,20.2309,VALID,10,VALID,0,
2013-12-10, 02:38:04,VALID,914.401,VALID,0,VALID,97.3358,VALID,0,VALID,20.2504,VALID,10,VALID,0,
2013-12-10, 02:39:04,VALID,914.405,VALID,0,VALID,97.3358,VALID,0,VALID,20.2309,VALID,10,VALID,0,
2013-12-10, 02:40:04,VALID,914.407,VALID,0,VALID,97.3281,VALID,0,VALID,20.2309,VALID,10,VALID,0,
2013-12-10, 02:41:04,VALID,914.402,VALID,0,VALID,97.3129,VALID,0,VALID,20.2504,VALID,10,VALID,0,
2013-12-10, 02:42:04,VALID,914.399,VALID,0,VALID,97.2977,VALID,0,VALID,20.2504,VALID,10,VALID,0,
2013-12-10, 02:43:04,VALID,914.401,VALID,0,VALID,97.3129,VALID,0.107441,VALID,20.2684,VALID,10,VALID,0,
2013-12-10, 02:44:04,VALID,914.377,VALID,0,VALID,97.3053,VALID,0,VALID,20.2684,VALID,10,VALID,0,
2013-12-10, 02:45:04,VALID,914.381,VALID,0,VALID,97.3205,VALID,0.107441,VALID,20.2473,VALID,10,VALID,0,
2013-12-10, 02:46:04,VALID,914.369,VALID,0,VALID,97.3205,VALID,0.107441,VALID,20.2879,VALID,10,VALID,0,
2013-12-10, 02:47:04,VALID,914.362,VALID,0,VALID,97.3281,VALID,0.107441,VALID,20.2863,VALID,10,VALID,0,
2013-12-10, 02:48:04,VALID,914.376,VALID,0,VALID,97.3205,VALID,0,VALID,20.3074,VALID,10,VALID,0,
2013-12-10, 02:49:04,VALID,914.36,VALID,0,VALID,97.3205,VALID,0.107441,VALID,20.3495,VALID,10,VALID,0,
2013-12-10, 02:50:04,VALID,914.34,VALID,0,VALID,97.3205,VALID,0,VALID,20.2848,VALID,10,VALID,0,
2013-12-10, 02:51:04,VALID,914.332,VALID,0,VALID,97.3129,VALID,0,VALID,20.3479,VALID,10,VALID,0,
2013-12-10, 02:52:04,VALID,914.326,VALID,0,VALID,97.3281,VALID,0,VALID,20.2863,VALID,10,VALID,0,
2013-12-10, 02:53:04,VALID,914.333,VALID,0,VALID,97.3281,VALID,0,VALID,20.3074,VALID,10,VALID,0,
2013-12-10, 02:54:04,VALID,914.262,VALID,0,VALID,97.3205,VALID,0.107441,VALID,20.2863,VALID,10,VALID,0,
2013-12-10, 02:55:04,VALID,914.234,VALID,0,VALID,97.3205,VALID,0.107441,VALID,20.3074,VALID,10,VALID,0,
2013-12-10, 02:56:04,VALID,914.21,VALID,0,VALID,97.3205,VALID,0,VALID,20.2879,VALID,10,VALID,0,
2013-12-10, 02:57:04,VALID,914.195,VALID,0,VALID,97.3281,VALID,0.107441,VALID,20.2879,VALID,10,VALID,0,
2013-12-10, 02:58:04,VALID,914.215,VALID,0,VALID,97.3129,VALID,0,VALID,20.2879,VALID,10,VALID,0,
2013-12-10, 02:59:04,VALID,914.184,VALID,0,VALID,97.3281,VALID,0,VALID,20.3074,VALID,10,VALID,0,
2013-12-10, 03:00:04,VALID,914.137,VALID,0,VALID,97.3053,VALID,0,VALID,20.3479,VALID,10,VALID,0,
2013-12-10, 03:01:04,VALID,914.163,VALID,0,VALID,97.3129,VALID,0,VALID,20.3479,VALID,10,VALID,0,
2013-12-10, 03:02:04,VALID,914.174,VALID,0,VALID,97.2977,VALID,0,VALID,20.3479,VALID,10,VALID,0,
2013-12-10, 03:03:04,VALID,914.186,VALID,0,VALID,97.3281,VALID,0,VALID,20.3479,VALID,10,VALID,0,
2013-12-10, 03:04:04,VALID,914.171,VALID,0,VALID,97.3205,VALID,0,VALID,20.3284,VALID,10,VALID,0,
2013-12-10, 03:05:04,VALID,914.151,VALID,0,VALID,97.3281,VALID,0,VALID,20.3089,VALID,10,VALID,0,
2013-12-10, 03:06:04,VALID,914.133,VALID,0,VALID,97.3205,VALID,0,VALID,20.2879,VALID,10,VALID,0,
2013-12-10, 03:07:04,VALID,914.142,VALID,0,VALID,97.3281,VALID,0,VALID,20.3495,VALID,10,VALID,0,
2013-12-10, 03:08:04,VALID,914.072,VALID,0,VALID,97.3205,VALID,0,VALID,20.3089,VALID,10,VALID,0,
2013-12-10, 03:09:04,VALID,914.08,VALID,0,VALID,97.3434,VALID,0,VALID,20.2699,VALID,10,VALID,0,
2013-12-10, 03:10:04,VALID,914.081,VALID,0,VALID,97.3281,VALID,0,VALID,20.2504,VALID,10,VALID,0,
2013-12-10, 03:11:04,VALID,914.044,VALID,0,VALID,97.3129,VALID,0,VALID,20.2098,VALID,10,VALID,0,
2013-12-10, 03:12:04,VALID,914.025,VALID,0,VALID,97.3358,VALID,0,VALID,20.2309,VALID,10,VALID,0,
2013-12-10, 03:13:04,VALID,913.994,VALID,0,VALID,97.351,VALID,0,VALID,20.2309,VALID,10,VALID,0,
2013-12-10, 03:14:04,VALID,913.992,VALID,0,VALID,97.3434,VALID,0,VALID,20.1903,VALID,10,VALID,0,
2013-12-10, 03:15:04,VALID,914.016,VALID,0,VALID,97.351,VALID,0,VALID,20.1708,VALID,22,VALID,0,
2013-12-10, 03:16:04,VALID,913.973,VALID,0,VALID,97.3434,VALID,0,VALID,20.1318,VALID,22,VALID,0,
2013-12-10, 03:17:04,VALID,913.969,VALID,0,VALID,97.3586,VALID,0.107441,VALID,20.1513,VALID,22,VALID,0,
2013-12-10, 03:18:04,VALID,913.989,VALID,0,VALID,97.351,VALID,0,VALID,20.1318,VALID,22,VALID,0,
2013-12-10, 03:19:04,VALID,913.975,VALID,0,VALID,97.3586,VALID,0,VALID,20.1123,VALID,22,VALID,0,
2013-12-10, 03:20:04,VALID,913.966,VALID,0,VALID,97.351,VALID,0.107441,VALID,20.0928,VALID,23,VALID,0,
2013-12-10, 03:21:04,VALID,913.94,VALID,0,VALID,97.3434,VALID,0,VALID,20.1123,VALID,23,VALID,0,
2013-12-10, 03:22:04,VALID,913.953,VALID,0,VALID,97.351,VALID,0,VALID,20.1318,VALID,22,VALID,0,
2013-12-10, 03:23:04,VALID,913.905,VALID,0,VALID,97.3434,VALID,0,VALID,20.1513,VALID,22,VALID,0,
2013-12-10, 03:24:04,VALID,913.9,VALID,0,VALID,97.3663,VALID,0.107441,VALID,20.1318,VALID,22,VALID,0,
2013-12-10, 03:25:04,VALID,913.907,VALID,0,VALID,97.3434,VALID,0,VALID,20.1318,VALID,22,VALID,0,
2013-12-10, 03:26:04,VALID,913.885,VALID,0,VALID,97.3434,VALID,0,VALID,20.1513,VALID,22,VALID,0,
2013-12-10, 03:27:04,VALID,913.887,VALID,0,VALID,97.351,VALID,0,VALID,20.1513,VALID,22,VALID,0,
2013-12-10, 03:28:04,VALID,913.855,VALID,0,VALID,97.351,VALID,0,VALID,20.1334,VALID,22,VALID,0,
2013-12-10, 03:29:04,VALID,913.899,VALID,0,VALID,97.3586,VALID,0,VALID,20.1529,VALID,22,VALID,0,
2013-12-10, 03:30:04,VALID,913.865,VALID,0,VALID,97.351,VALID,0,VALID,20.1318,VALID,22,VALID,0,
2013-12-10, 03:31:04,VALID,913.847,VALID,0,VALID,97.3434,VALID,0,VALID,20.1544,VALID,22,VALID,0,
2013-12-10, 03:32:04,VALID,913.851,VALID,0,VALID,97.3586,VALID,0,VALID,20.1318,VALID,22,VALID,0,
2013-12-10, 03:33:04,VALID,913.852,VALID,0,VALID,97.3358,VALID,0,VALID,20.1724,VALID,22,VALID,0,
2013-12-10, 03:34:04,VALID,913.832,VALID,0,VALID,97.3358,VALID,0,VALID,20.1724,VALID,22,VALID,0,
2013-12-10, 03:35:04,VALID,913.835,VALID,0,VALID,97.351,VALID,0,VALID,20.1724,VALID,22,VALID,0,
2013-12-10, 03:36:04,VALID,913.876,VALID,0,VALID,97.3586,VALID,0,VALID,20.1529,VALID,22,VALID,0,
2013-12-10, 03:37:04,VALID,913.857,VALID,0,VALID,97.3434,VALID,0,VALID,20.1724,VALID,22,VALID,0,
2013-12-10, 03:38:04,VALID,913.887,VALID,0,VALID,97.351,VALID,0,VALID,20.1529,VALID,21,VALID,0,
2013-12-10, 03:39:04,VALID,913.87,VALID,0,VALID,97.351,VALID,0,VALID,20.1724,VALID,21,VALID,0,
2013-12-10, 03:40:04,VALID,913.878,VALID,0,VALID,97.3586,VALID,0,VALID,20.1334,VALID,21,VALID,0,
2013-12-10, 03:41:04,VALID,913.868,VALID,0,VALID,97.351,VALID,0,VALID,20.1529,VALID,21,VALID,0,
2013-12-10, 03:42:04,VALID,913.897,VALID,0,VALID,97.351,VALID,0,VALID,20.1529,VALID,13,VALID,0,
2013-12-10, 03:43:04,VALID,913.893,VALID,0,VALID,97.351,VALID,0,VALID,20.1318,VALID,13,VALID,0,
2013-12-10, 03:44:04,VALID,913.873,VALID,0,VALID,97.3586,VALID,0,VALID,20.1318,VALID,13,VALID,0,
2013-12-10, 03:45:04,VALID,913.867,VALID,0,VALID,97.3586,VALID,0,VALID,20.1318,VALID,12,VALID,0,
2013-12-10, 03:46:04,VALID,913.847,VALID,0,VALID,97.351,VALID,0.107441,VALID,20.1318,VALID,12,VALID,0,
2013-12-10, 03:47:04,VALID,913.871,VALID,0,VALID,97.3663,VALID,0.107441,VALID,20.1108,VALID,13,VALID,0,
2013-12-10, 03:48:04,VALID,913.884,VALID,0,VALID,97.351,VALID,0.107441,VALID,20.1513,VALID,13,VALID,0,
2013-12-10, 03:49:04,VALID,913.867,VALID,0,VALID,97.351,VALID,0,VALID,20.1513,VALID,12,VALID,0,
2013-12-10, 03:50:04,VALID,913.874,VALID,0,VALID,97.351,VALID,0.107441,VALID,20.1708,VALID,13,VALID,0,
2013-12-10, 03:51:04,VALID,913.858,VALID,0,VALID,97.351,VALID,0,VALID,20.1708,VALID,13,VALID,0,
2013-12-10, 03:52:04,VALID,913.868,VALID,0,VALID,97.3663,VALID,0.107441,VALID,20.1708,VALID,12,VALID,0,
2013-12-10, 03:53:04,VALID,913.871,VALID,0,VALID,97.3358,VALID,0,VALID,20.1724,VALID,13,VALID,0,
2013-12-10, 03:54:04,VALID,913.877,VALID,0,VALID,97.351,VALID,0,VALID,20.1708,VALID,13,VALID,0,
2013-12-10, 03:55:04,VALID,913.93,VALID,0,VALID,97.3358,VALID,0,VALID,20.1513,VALID,13,VALID,0,
2013-12-10, 03:56:04,VALID,913.91,VALID,0,VALID,97.3281,VALID,0.107441,VALID,20.1708,VALID,13,VALID,0,
2013-12-10, 03:57:04,VALID,913.927,VALID,0,VALID,97.3434,VALID,0,VALID,20.1708,VALID,13,VALID,0,
2013-12-10, 03:58:04,VALID,913.923,VALID,0,VALID,97.3586,VALID,0,VALID,20.1919,VALID,13,VALID,0,
2013-12-10, 03:59:04,VALID,913.918,VALID,0,VALID,97.351,VALID,0,VALID,20.2114,VALID,13,VALID,0,
2013-12-10, 04:00:04,VALID,913.903,VALID,0,VALID,97.3739,VALID,0,VALID,20.2324,VALID,13,VALID,0,
2013-12-10, 04:01:04,VALID,913.952,VALID,0,VALID,97.3434,VALID,0,VALID,20.2129,VALID,12,VALID,0,